sat.trackr.live / text

‹ back to catalog

2023-091E

NORAD 57170 · 2023-091E

PAYLOAD ACTIVE UNKNOWN

§ Identity

Operator
Country
CIS
Launch date
2023-06-27
Launch site
VOSTO
Launch vehicle
Mass (kg)
RCS (m²)

External: N2YO · Heavens-Above · Gunter

§ Orbital elements

Epoch: 2026-09-21T21:54:09.438336Z

Period
94.40 min
Inclination
97.5020°
Eccentricity
0.0010336
Mean motion
15.25484626 rev/d
Perigee alt
482.2 km
Apogee alt
496.4 km
Semi-major
6,867.5 km
B*
2.1689e-4
RAAN
326.7743°
Arg perigee
111.2653°
Mean anomaly
248.9690°
Rev number
17,890

§ Raw data

2023-091E1 57170U 23091E   26264.91260924  .00005425  00000+0  21689-3 0  99922 57170  97.5020 326.7743 0010336 111.2653 248.9690 15.25484626178905

JSON: /api/v1/satellites/57170 · /tle

For live sub-satellite position, see the globe view (requires WebGL).

§ Visibility from observer

Set your observer location to see the next 7 days of passes ≥ 10°. The values pass through the URL so the page stays shareable.

No JS? Fill the form by hand. The geolocation button needs JavaScript.